Time,TemperatureF,DewpointF,PressureIn,WindDirection,WindDirectionDegrees,WindSpeedMPH,WindSpeedGustMPH,Humidity,HourlyPrecipIn,Conditions,Clouds,dailyrainin,SoftwareType,DateUTC
2013-07-30 00:01:00,69.4,60.1,30.16,West,275,0.0,2.0,72,0.00,,,0.03,meteohub,2013-07-30 04:01:00,
2013-07-30 00:02:00,69.3,59.9,30.16,West,281,1.0,2.0,72,0.00,,,0.03,meteohub,2013-07-30 04:02:00,
2013-07-30 00:04:00,69.3,59.9,30.16,WNW,291,1.0,2.0,72,0.00,,,0.03,meteohub,2013-07-30 04:04:00,
2013-07-30 00:09:00,69.3,59.9,30.16,WNW,291,0.0,2.0,72,0.00,,,0.00,meteohub,2013-07-30 04:09:00,
2013-07-30 00:14:00,69.1,60.1,30.16,WNW,291,0.0,2.0,73,0.00,,,0.00,meteohub,2013-07-30 04:14:00,
2013-07-30 00:19:00,68.7,60.1,30.17,WNW,283,0.0,2.0,74,0.00,,,0.00,meteohub,2013-07-30 04:19:00,
2013-07-30 00:24:00,68.5,59.9,30.17,WNW,284,0.0,1.0,74,0.00,,,0.00,meteohub,2013-07-30 04:24:00,
2013-07-30 00:29:00,68.4,59.7,30.17,West,273,0.0,1.0,74,0.00,,,0.00,meteohub,2013-07-30 04:29:00,
2013-07-30 00:34:00,68.4,60.1,30.17,West,273,0.0,1.0,75,0.00,,,0.00,meteohub,2013-07-30 04:34:00,
2013-07-30 00:39:00,68.2,59.9,30.16,West,273,0.0,1.0,75,0.00,,,0.00,meteohub,2013-07-30 04:39:00,
2013-07-30 00:44:00,67.8,59.9,30.16,West,274,0.0,1.0,76,0.00,,,0.00,meteohub,2013-07-30 04:44:00,
2013-07-30 00:49:00,67.6,59.7,30.16,West,274,0.0,1.0,76,0.00,,,0.00,meteohub,2013-07-30 04:49:00,
2013-07-30 00:54:00,67.5,60.1,30.16,West,275,0.0,1.0,77,0.00,,,0.00,meteohub,2013-07-30 04:54:00,
2013-07-30 00:59:00,67.3,59.9,30.16,West,280,0.0,1.0,77,0.00,,,0.00,meteohub,2013-07-30 04:59:00,
2013-07-30 01:04:00,67.3,60.3,30.16,WNW,288,0.0,2.0,78,0.00,,,0.00,meteohub,2013-07-30 05:04:00,
2013-07-30 01:09:00,66.9,59.9,30.16,WNW,291,0.0,2.0,78,0.00,,,0.00,meteohub,2013-07-30 05:09:00,
2013-07-30 01:14:00,66.7,59.7,30.16,WNW,284,1.0,2.0,78,0.00,,,0.00,meteohub,2013-07-30 05:14:00,
2013-07-30 01:19:00,66.7,60.1,30.16,WNW,283,0.0,1.0,79,0.00,,,0.00,meteohub,2013-07-30 05:19:00,
2013-07-30 01:24:00,66.6,59.9,30.16,WNW,283,0.0,1.0,79,0.00,,,0.00,meteohub,2013-07-30 05:24:00,
2013-07-30 01:29:00,66.4,59.7,30.16,WNW,284,0.0,1.0,79,0.00,,,0.00,meteohub,2013-07-30 05:29:00,
2013-07-30 01:34:00,66.2,59.9,30.16,WNW,284,0.0,1.0,80,0.00,,,0.00,meteohub,2013-07-30 05:34:00,
2013-07-30 01:39:00,66.0,59.7,30.16,WNW,284,0.0,1.0,80,0.00,,,0.00,meteohub,2013-07-30 05:39:00,
2013-07-30 01:44:00,66.0,59.7,30.16,WNW,285,0.0,1.0,80,0.00,,,0.00,meteohub,2013-07-30 05:44:00,
2013-07-30 01:49:00,65.8,59.5,30.16,WNW,285,0.0,1.0,80,0.00,,,0.00,meteohub,2013-07-30 05:49:00,
2013-07-30 01:54:00,65.8,59.9,30.16,WNW,288,0.0,1.0,81,0.00,,,0.00,meteohub,2013-07-30 05:54:00,
2013-07-30 01:59:00,65.8,59.9,30.16,WNW,301,1.0,1.0,81,0.00,,,0.00,meteohub,2013-07-30 05:59:00,
2013-07-30 02:04:00,65.7,59.7,30.16,WNW,293,0.0,2.0,81,0.00,,,0.00,meteohub,2013-07-30 06:04:00,
2013-07-30 02:09:00,65.7,59.7,30.16,WNW,292,0.0,2.0,81,0.00,,,0.00,meteohub,2013-07-30 06:09:00,
2013-07-30 02:14:00,65.5,59.5,30.16,WNW,292,0.0,2.0,81,0.00,,,0.00,meteohub,2013-07-30 06:14:00,
2013-07-30 02:19:00,65.5,59.5,30.16,WNW,293,0.0,2.0,81,0.00,,,0.00,meteohub,2013-07-30 06:19:00,
2013-07-30 02:24:00,65.5,59.5,30.16,WNW,296,0.0,1.0,81,0.00,,,0.00,meteohub,2013-07-30 06:24:00,
2013-07-30 02:29:00,65.1,59.5,30.16,WNW,290,1.0,1.0,82,0.00,,,0.00,meteohub,2013-07-30 06:29:00,
2013-07-30 02:34:00,65.1,59.5,30.16,WNW,285,1.0,2.0,82,0.00,,,0.00,meteohub,2013-07-30 06:34:00,
2013-07-30 02:39:00,64.9,59.4,30.16,WNW,285,0.0,2.0,82,0.00,,,0.00,meteohub,2013-07-30 06:39:00,
2013-07-30 02:44:00,64.9,59.7,30.15,WNW,293,1.0,2.0,83,0.00,,,0.00,meteohub,2013-07-30 06:44:00,
2013-07-30 02:49:00,64.9,59.4,30.15,WNW,292,1.0,2.0,82,0.00,,,0.00,meteohub,2013-07-30 06:49:00,
2013-07-30 02:54:00,64.9,59.7,30.15,WNW,291,0.0,3.0,83,0.00,,,0.00,meteohub,2013-07-30 06:54:00,
2013-07-30 02:59:00,64.8,59.5,30.15,West,281,1.0,3.0,83,0.00,,,0.00,meteohub,2013-07-30 06:59:00,
2013-07-30 03:04:00,64.8,59.5,30.15,WNW,288,3.0,3.0,83,0.00,,,0.00,meteohub,2013-07-30 07:04:00,
2013-07-30 03:09:00,64.8,59.5,30.15,WNW,288,0.0,3.0,83,0.00,,,0.00,meteohub,2013-07-30 07:09:00,
2013-07-30 03:14:00,64.6,59.4,30.15,WNW,285,0.0,3.0,83,0.00,,,0.00,meteohub,2013-07-30 07:14:00,
2013-07-30 03:19:00,64.6,59.0,30.16,WNW,285,0.0,3.0,82,0.00,,,0.00,meteohub,2013-07-30 07:19:00,
2013-07-30 03:24:00,64.4,59.2,30.16,WNW,285,0.0,3.0,83,0.00,,,0.00,meteohub,2013-07-30 07:24:00,
2013-07-30 03:29:00,64.2,59.0,30.16,WNW,285,0.0,2.0,83,0.00,,,0.00,meteohub,2013-07-30 07:29:00,
2013-07-30 03:34:00,64.2,59.0,30.15,WNW,285,0.0,1.0,83,0.00,,,0.00,meteohub,2013-07-30 07:34:00,
2013-07-30 03:39:00,64.0,58.8,30.16,WNW,283,0.0,2.0,83,0.00,,,0.00,meteohub,2013-07-30 07:39:00,
2013-07-30 03:44:00,64.0,58.8,30.16,West,281,0.0,2.0,83,0.00,,,0.00,meteohub,2013-07-30 07:44:00,
2013-07-30 03:49:00,64.0,58.8,30.16,West,278,0.0,2.0,83,0.00,,,0.00,meteohub,2013-07-30 07:49:00,
2013-07-30 03:54:00,64.0,58.8,30.16,WNW,283,1.0,2.0,83,0.00,,,0.00,meteohub,2013-07-30 07:54:00,
2013-07-30 03:59:00,63.9,58.6,30.16,WNW,283,0.0,2.0,83,0.00,,,0.00,meteohub,2013-07-30 07:59:00,
2013-07-30 04:04:00,63.7,58.8,30.16,WNW,283,0.0,2.0,84,0.00,,,0.00,meteohub,2013-07-30 08:04:00,
2013-07-30 04:10:00,63.5,58.6,30.16,WNW,283,0.0,2.0,84,0.00,,,0.00,meteohub,2013-07-30 08:10:00,
2013-07-30 04:15:00,63.3,58.8,30.17,West,281,0.0,1.0,85,0.00,,,0.00,meteohub,2013-07-30 08:15:00,
2013-07-30 04:20:00,63.1,58.6,30.17,West,281,0.0,1.0,85,0.00,,,0.00,meteohub,2013-07-30 08:20:00,
2013-07-30 04:25:00,63.0,58.6,30.17,WNW,287,0.0,1.0,86,0.00,,,0.00,meteohub,2013-07-30 08:25:00,
2013-07-30 04:30:00,62.8,58.5,30.17,WNW,287,0.0,1.0,86,0.00,,,0.00,meteohub,2013-07-30 08:30:00,
2013-07-30 04:35:00,62.8,58.5,30.17,WNW,284,0.0,1.0,86,0.00,,,0.00,meteohub,2013-07-30 08:35:00,
2013-07-30 04:40:00,62.6,58.6,30.17,WNW,283,0.0,1.0,87,0.00,,,0.00,meteohub,2013-07-30 08:40:00,
2013-07-30 04:45:00,62.6,58.6,30.17,WNW,283,0.0,1.0,87,0.00,,,0.00,meteohub,2013-07-30 08:45:00,
2013-07-30 04:50:00,62.4,58.5,30.17,WNW,288,0.0,1.0,87,0.00,,,0.00,meteohub,2013-07-30 08:50:00,
2013-07-30 04:55:00,62.4,58.5,30.17,WNW,287,0.0,2.0,87,0.00,,,0.00,meteohub,2013-07-30 08:55:00,
2013-07-30 05:00:00,62.4,58.5,30.17,WNW,287,0.0,2.0,87,0.00,,,0.00,meteohub,2013-07-30 09:00:00,
2013-07-30 05:05:00,62.2,58.3,30.17,WNW,287,0.0,2.0,87,0.00,,,0.00,meteohub,2013-07-30 09:05:00,
2013-07-30 05:10:00,62.1,58.1,30.17,WNW,287,0.0,1.0,87,0.00,,,0.00,meteohub,2013-07-30 09:10:00,
2013-07-30 05:15:00,61.9,57.9,30.18,WNW,287,0.0,0.0,87,0.00,,,0.00,meteohub,2013-07-30 09:15:00,
2013-07-30 05:20:00,61.9,57.9,30.18,WNW,287,0.0,0.0,87,0.00,,,0.00,meteohub,2013-07-30 09:20:00,
2013-07-30 05:25:00,61.9,57.9,30.18,WNW,287,0.0,0.0,87,0.00,,,0.00,meteohub,2013-07-30 09:25:00,
2013-07-30 05:30:00,61.9,58.3,30.18,WNW,287,0.0,0.0,88,0.00,,,0.00,meteohub,2013-07-30 09:30:00,
2013-07-30 05:35:00,61.5,57.9,30.18,North,6,0.0,0.0,88,0.00,,,0.00,meteohub,2013-07-30 09:35:00,
2013-07-30 05:40:00,61.3,58.1,30.19,NE,43,0.0,1.0,89,0.00,,,0.00,meteohub,2013-07-30 09:40:00,
2013-07-30 05:45:00,61.0,57.7,30.19,NE,42,0.0,1.0,89,0.00,,,0.00,meteohub,2013-07-30 09:45:00,
2013-07-30 05:50:00,61.0,58.1,30.19,NE,41,0.0,1.0,90,0.00,,,0.00,meteohub,2013-07-30 09:50:00,
2013-07-30 05:55:00,60.6,57.4,30.19,NE,41,0.0,1.0,89,0.00,,,0.00,meteohub,2013-07-30 09:55:00,
2013-07-30 06:00:00,60.4,57.6,30.19,NE,41,0.0,1.0,90,0.00,,,0.00,meteohub,2013-07-30 10:00:00,
2013-07-30 06:05:00,60.3,57.4,30.19,NE,41,0.0,0.0,90,0.00,,,0.00,meteohub,2013-07-30 10:05:00,
2013-07-30 06:10:00,60.1,57.2,30.20,NE,41,0.0,0.0,90,0.00,,,0.00,meteohub,2013-07-30 10:10:00,
2013-07-30 06:15:00,60.1,57.4,30.20,NE,41,0.0,0.0,91,0.00,,,0.00,meteohub,2013-07-30 10:15:00,
2013-07-30 06:20:00,60.1,57.4,30.20,NE,41,0.0,1.0,91,0.00,,,0.00,meteohub,2013-07-30 10:20:00,
2013-07-30 06:25:00,60.3,57.6,30.20,NE,41,0.0,1.0,91,0.00,,,0.00,meteohub,2013-07-30 10:25:00,
2013-07-30 06:30:00,60.3,57.6,30.20,NE,42,0.0,1.0,91,0.00,,,0.00,meteohub,2013-07-30 10:30:00,
2013-07-30 06:35:00,60.4,57.7,30.20,NW,314,0.0,0.0,91,0.00,,,0.00,meteohub,2013-07-30 10:35:00,
2013-07-30 06:40:00,61.0,58.1,30.20,WNW,296,0.0,0.0,90,0.00,,,0.00,meteohub,2013-07-30 10:40:00,
2013-07-30 06:45:00,61.3,58.1,30.20,WNW,302,0.0,2.0,89,0.00,,,0.00,meteohub,2013-07-30 10:45:00,
2013-07-30 06:50:00,61.9,57.9,30.20,WNW,290,0.0,2.0,87,0.00,,,0.00,meteohub,2013-07-30 10:50:00,
2013-07-30 06:55:00,62.4,58.1,30.20,WNW,284,0.0,1.0,86,0.00,,,0.00,meteohub,2013-07-30 10:55:00,
2013-07-30 07:00:00,62.8,58.5,30.20,WNW,285,0.0,2.0,86,0.00,,,0.00,meteohub,2013-07-30 11:00:00,
2013-07-30 07:05:00,63.0,58.5,30.20,WNW,285,0.0,2.0,85,0.00,,,0.00,meteohub,2013-07-30 11:05:00,
2013-07-30 07:10:00,63.1,58.6,30.20,WNW,285,1.0,2.0,85,0.00,,,0.00,meteohub,2013-07-30 11:10:00,
2013-07-30 07:15:00,63.5,58.8,30.20,West,274,0.0,2.0,85,0.00,,,0.00,meteohub,2013-07-30 11:15:00,
2013-07-30 07:20:00,63.7,58.8,30.20,WNW,287,0.0,2.0,84,0.00,,,0.00,meteohub,2013-07-30 11:20:00,
2013-07-30 07:25:00,64.0,59.2,30.20,WNW,291,0.0,3.0,84,0.00,,,0.00,meteohub,2013-07-30 11:25:00,
2013-07-30 07:30:00,64.4,59.2,30.20,WNW,291,0.0,3.0,83,0.00,,,0.00,meteohub,2013-07-30 11:30:00,
2013-07-30 07:35:00,64.8,59.5,30.20,WNW,291,0.0,3.0,83,0.00,,,0.00,meteohub,2013-07-30 11:35:00,
2013-07-30 07:40:00,65.1,58.8,30.21,NW,304,1.0,2.0,80,0.00,,,0.00,meteohub,2013-07-30 11:40:00,
2013-07-30 07:45:00,65.7,59.0,30.21,NW,304,0.0,3.0,79,0.00,,,0.00,meteohub,2013-07-30 11:45:00,
2013-07-30 07:50:00,66.0,59.4,30.21,West,275,0.0,3.0,79,0.00,,,0.00,meteohub,2013-07-30 11:50:00,
2013-07-30 07:55:00,66.4,59.7,30.21,West,276,0.0,3.0,79,0.00,,,0.00,meteohub,2013-07-30 11:55:00,
2013-07-30 08:00:00,66.6,59.5,30.21,WNW,293,0.0,1.0,78,0.00,,,0.00,meteohub,2013-07-30 12:00:00,
2013-07-30 08:05:00,67.1,59.7,30.22,WNW,294,1.0,3.0,77,0.00,,,0.00,meteohub,2013-07-30 12:05:00,
2013-07-30 08:11:00,67.6,59.7,30.22,North,358,0.0,5.0,76,0.00,,,0.00,meteohub,2013-07-30 12:11:00,
2013-07-30 08:16:00,68.0,59.4,30.22,WNW,290,3.0,6.0,74,0.00,,,0.00,meteohub,2013-07-30 12:16:00,
2013-07-30 08:21:00,68.5,59.5,30.22,WNW,291,0.0,6.0,73,0.00,,,0.00,meteohub,2013-07-30 12:21:00,
2013-07-30 08:26:00,68.7,59.7,30.22,SSE,165,1.0,6.0,73,0.00,,,0.00,meteohub,2013-07-30 12:26:00,
2013-07-30 08:31:00,69.1,59.7,30.22,NW,307,1.0,7.0,72,0.00,,,0.00,meteohub,2013-07-30 12:31:00,
2013-07-30 08:36:00,69.3,59.9,30.22,WNW,296,3.0,7.0,72,0.00,,,0.00,meteohub,2013-07-30 12:36:00,
2013-07-30 08:41:00,69.6,60.3,30.22,NW,312,0.0,7.0,72,0.00,,,0.00,meteohub,2013-07-30 12:41:00,
2013-07-30 08:46:00,70.0,59.7,30.22,NNE,12,0.0,4.0,70,0.00,,,0.00,meteohub,2013-07-30 12:46:00,
2013-07-30 08:51:00,70.2,59.5,30.22,NW,311,1.0,5.0,69,0.00,,,0.00,meteohub,2013-07-30 12:51:00,
2013-07-30 08:56:00,70.3,59.4,30.22,WNW,295,4.0,6.0,68,0.00,,,0.00,meteohub,2013-07-30 12:56:00,
2013-07-30 09:01:00,70.3,59.4,30.22,NE,41,3.0,6.0,68,0.00,,,0.00,meteohub,2013-07-30 13:01:00,
2013-07-30 09:06:00,70.5,59.4,30.22,WNW,300,2.0,6.0,68,0.00,,,0.00,meteohub,2013-07-30 13:06:00,
2013-07-30 09:11:00,70.7,59.5,30.22,WNW,285,3.0,5.0,68,0.00,,,0.00,meteohub,2013-07-30 13:11:00,
2013-07-30 09:16:00,71.1,59.5,30.22,West,274,4.0,5.0,67,0.00,,,0.00,meteohub,2013-07-30 13:16:00,
2013-07-30 09:21:00,71.1,59.9,30.22,ENE,61,0.0,6.0,68,0.00,,,0.00,meteohub,2013-07-30 13:21:00,
2013-07-30 09:26:00,71.2,59.7,30.22,NW,304,2.0,6.0,67,0.00,,,0.00,meteohub,2013-07-30 13:26:00,
2013-07-30 09:32:00,71.4,59.9,30.21,NW,319,2.0,7.0,67,0.00,,,0.00,meteohub,2013-07-30 13:32:00,
2013-07-30 09:37:00,71.6,59.7,30.22,NW,306,1.0,7.0,66,0.00,,,0.00,meteohub,2013-07-30 13:37:00,
2013-07-30 09:42:00,72.0,60.4,30.22,WNW,293,1.0,7.0,67,0.00,,,0.00,meteohub,2013-07-30 13:42:00,
2013-07-30 09:47:00,72.1,60.1,30.22,West,281,1.0,7.0,66,0.00,,,0.00,meteohub,2013-07-30 13:47:00,
2013-07-30 09:52:00,72.5,60.4,30.22,WNW,290,4.0,7.0,66,0.00,,,0.00,meteohub,2013-07-30 13:52:00,
2013-07-30 09:57:00,72.7,60.3,30.22,ENE,58,4.0,7.0,65,0.00,,,0.00,meteohub,2013-07-30 13:57:00,
2013-07-30 10:02:00,72.9,59.9,30.22,WNW,302,2.0,7.0,64,0.00,,,0.00,meteohub,2013-07-30 14:02:00,
2013-07-30 10:07:00,73.0,60.1,30.22,NE,48,2.0,6.0,64,0.00,,,0.00,meteohub,2013-07-30 14:07:00,
2013-07-30 10:12:00,73.4,60.4,30.22,NNE,33,0.0,5.0,64,0.00,,,0.00,meteohub,2013-07-30 14:12:00,
2013-07-30 10:17:00,73.8,60.4,30.22,NW,320,0.0,5.0,63,0.00,,,0.00,meteohub,2013-07-30 14:17:00,
2013-07-30 10:22:00,74.3,60.8,30.21,NW,316,1.0,5.0,63,0.00,,,0.00,meteohub,2013-07-30 14:22:00,
2013-07-30 10:27:00,74.7,60.3,30.21,WNW,283,2.0,6.0,61,0.00,,,0.00,meteohub,2013-07-30 14:27:00,
2013-07-30 10:32:00,74.8,60.4,30.21,WSW,255,8.0,8.0,61,0.00,,,0.00,meteohub,2013-07-30 14:32:00,
2013-07-30 10:37:00,75.2,60.4,30.21,West,267,1.0,8.0,60,0.00,,,0.00,meteohub,2013-07-30 14:37:00,
2013-07-30 10:42:00,75.9,60.1,30.21,WNW,290,7.0,8.0,58,0.00,,,0.00,meteohub,2013-07-30 14:42:00,
2013-07-30 10:47:00,75.4,59.5,30.21,WNW,287,3.0,8.0,58,0.00,,,0.00,meteohub,2013-07-30 14:47:00,
2013-07-30 10:52:00,75.6,58.8,30.21,NW,309,3.0,9.0,56,0.00,,,0.00,meteohub,2013-07-30 14:52:00,
2013-07-30 10:57:00,75.7,59.0,30.21,NW,307,1.0,9.0,56,0.00,,,0.00,meteohub,2013-07-30 14:57:00,
2013-07-30 11:02:00,75.9,59.5,30.21,NW,311,4.0,9.0,57,0.00,,,0.00,meteohub,2013-07-30 15:02:00,
2013-07-30 11:07:00,75.9,58.6,30.20,NW,322,2.0,9.0,55,0.00,,,0.00,meteohub,2013-07-30 15:07:00,
2013-07-30 11:12:00,75.9,59.5,30.21,NW,312,4.0,9.0,57,0.00,,,0.00,meteohub,2013-07-30 15:12:00,
2013-07-30 11:17:00,76.5,60.1,30.20,NNW,336,1.0,9.0,57,0.00,,,0.00,meteohub,2013-07-30 15:17:00,
2013-07-30 11:22:00,76.6,59.7,30.20,WNW,295,6.0,9.0,56,0.00,,,0.00,meteohub,2013-07-30 15:22:00,
2013-07-30 11:27:00,76.8,59.9,30.20,WNW,293,4.0,11.0,56,0.00,,,0.00,meteohub,2013-07-30 15:27:00,
2013-07-30 11:32:00,77.2,59.2,30.20,North,8,1.0,11.0,54,0.00,,,0.00,meteohub,2013-07-30 15:32:00,
2013-07-30 11:37:00,77.5,59.0,30.20,West,279,6.0,11.0,53,0.00,,,0.00,meteohub,2013-07-30 15:37:00,
2013-07-30 11:42:00,77.7,58.6,30.19,South,187,1.0,7.0,52,0.00,,,0.00,meteohub,2013-07-30 15:42:00,
2013-07-30 11:48:00,78.1,59.0,30.19,WSW,245,0.0,7.0,52,0.00,,,0.00,meteohub,2013-07-30 15:48:00,
2013-07-30 11:53:00,78.1,58.5,30.19,NW,304,5.0,7.0,51,0.00,,,0.00,meteohub,2013-07-30 15:53:00,
2013-07-30 11:58:00,78.4,57.2,30.19,West,281,4.0,7.0,48,0.00,,,0.00,meteohub,2013-07-30 15:58:00,
2013-07-30 12:03:00,77.9,56.7,30.19,WNW,288,9.0,9.0,48,0.00,,,0.00,meteohub,2013-07-30 16:03:00,
2013-07-30 12:08:00,77.7,57.6,30.19,NNW,336,1.0,10.0,50,0.00,,,0.00,meteohub,2013-07-30 16:08:00,
2013-07-30 12:13:00,78.1,57.9,30.19,NNE,22,3.0,10.0,50,0.00,,,0.00,meteohub,2013-07-30 16:13:00,
2013-07-30 12:18:00,78.3,58.1,30.19,NNW,347,2.0,10.0,50,0.00,,,0.00,meteohub,2013-07-30 16:18:00,
2013-07-30 12:23:00,78.3,58.6,30.19,NW,313,4.0,10.0,51,0.00,,,0.00,meteohub,2013-07-30 16:23:00,
2013-07-30 12:28:00,78.4,58.3,30.19,NNW,335,2.0,8.0,50,0.00,,,0.00,meteohub,2013-07-30 16:28:00,
2013-07-30 12:33:00,78.4,58.8,30.19,NW,323,1.0,8.0,51,0.00,,,0.00,meteohub,2013-07-30 16:33:00,
2013-07-30 12:38:00,78.4,58.3,30.19,NNE,18,0.0,8.0,50,0.00,,,0.00,meteohub,2013-07-30 16:38:00,
2013-07-30 12:43:00,78.3,58.1,30.19,WNW,298,4.0,9.0,50,0.00,,,0.00,meteohub,2013-07-30 16:43:00,
2013-07-30 12:48:00,78.3,58.6,30.19,WNW,298,7.0,9.0,51,0.00,,,0.00,meteohub,2013-07-30 16:48:00,
2013-07-30 12:53:00,78.4,58.8,30.19,WNW,288,2.0,9.0,51,0.00,,,0.00,meteohub,2013-07-30 16:53:00,
2013-07-30 12:58:00,78.4,59.4,30.19,North,349,1.0,9.0,52,0.00,,,0.00,meteohub,2013-07-30 16:58:00,
2013-07-30 13:03:00,78.6,59.5,30.18,West,279,5.0,9.0,52,0.00,,,0.00,meteohub,2013-07-30 17:03:00,
2013-07-30 13:08:00,79.0,58.1,30.18,WNW,300,7.0,9.0,49,0.00,,,0.00,meteohub,2013-07-30 17:08:00,
2013-07-30 13:13:00,78.6,57.9,30.18,WNW,298,3.0,11.0,49,0.00,,,0.00,meteohub,2013-07-30 17:13:00,
2013-07-30 13:18:00,79.0,59.4,30.18,West,277,7.0,11.0,51,0.00,,,0.00,meteohub,2013-07-30 17:18:00,
2013-07-30 13:23:00,78.3,58.6,30.18,North,5,1.0,12.0,51,0.00,,,0.00,meteohub,2013-07-30 17:23:00,
2013-07-30 13:28:00,78.3,59.2,30.18,NNE,22,2.0,12.0,52,0.00,,,0.00,meteohub,2013-07-30 17:28:00,
2013-07-30 13:33:00,78.4,59.4,30.17,North,5,2.0,12.0,52,0.00,,,0.00,meteohub,2013-07-30 17:33:00,
2013-07-30 13:38:00,78.4,59.4,30.17,NNW,328,1.0,8.0,52,0.00,,,0.00,meteohub,2013-07-30 17:38:00,
2013-07-30 13:43:00,78.6,59.5,30.17,NE,34,1.0,6.0,52,0.00,,,0.00,meteohub,2013-07-30 17:43:00,
2013-07-30 13:48:00,78.4,59.9,30.17,NW,307,8.0,8.0,53,0.00,,,0.00,meteohub,2013-07-30 17:48:00,
2013-07-30 13:53:00,78.8,59.7,30.17,WNW,301,3.0,8.0,52,0.00,,,0.00,meteohub,2013-07-30 17:53:00,
2013-07-30 13:58:00,78.3,59.2,30.17,WNW,302,2.0,8.0,52,0.00,,,0.00,meteohub,2013-07-30 17:58:00,
2013-07-30 14:03:00,78.1,59.5,30.17,NNW,345,1.0,8.0,53,0.00,,,0.00,meteohub,2013-07-30 18:03:00,
2013-07-30 14:08:00,77.9,59.9,30.17,NW,311,1.0,7.0,54,0.00,,,0.00,meteohub,2013-07-30 18:08:00,
2013-07-30 14:13:00,77.9,59.4,30.17,NNE,18,2.0,7.0,53,0.00,,,0.00,meteohub,2013-07-30 18:13:00,
2013-07-30 14:18:00,78.4,59.4,30.17,West,275,7.0,7.0,52,0.00,,,0.00,meteohub,2013-07-30 18:18:00,
2013-07-30 14:23:00,78.1,59.0,30.17,NW,311,3.0,10.0,52,0.00,,,0.00,meteohub,2013-07-30 18:23:00,
2013-07-30 14:28:00,78.4,59.4,30.17,WNW,283,3.0,10.0,52,0.00,,,0.00,meteohub,2013-07-30 18:28:00,
2013-07-30 14:33:00,78.4,58.8,30.17,NW,326,2.0,10.0,51,0.00,,,0.00,meteohub,2013-07-30 18:33:00,
2013-07-30 14:38:00,79.0,59.9,30.17,NNE,30,2.0,8.0,52,0.00,,,0.00,meteohub,2013-07-30 18:38:00,
2013-07-30 14:43:00,79.5,59.2,30.17,WNW,295,1.0,8.0,50,0.00,,,0.00,meteohub,2013-07-30 18:43:00,
2013-07-30 14:48:00,79.9,60.6,30.17,NNW,347,1.0,5.0,52,0.00,,,0.00,meteohub,2013-07-30 18:48:00,
2013-07-30 14:53:00,79.3,60.8,30.17,WNW,295,5.0,5.0,53,0.00,,,0.00,meteohub,2013-07-30 18:53:00,
2013-07-30 14:58:00,79.3,58.5,30.17,WNW,300,3.0,6.0,49,0.00,,,0.00,meteohub,2013-07-30 18:58:00,
2013-07-30 15:03:00,79.5,59.2,30.16,NW,314,1.0,8.0,50,0.00,,,0.00,meteohub,2013-07-30 19:03:00,
2013-07-30 15:08:00,80.8,59.9,30.16,North,349,1.0,8.0,49,0.00,,,0.00,meteohub,2013-07-30 19:08:00,
2013-07-30 15:13:00,80.4,57.7,30.16,NW,311,3.0,8.0,46,0.00,,,0.00,meteohub,2013-07-30 19:13:00,
2013-07-30 15:18:00,79.5,59.7,30.16,WNW,288,3.0,9.0,51,0.00,,,0.00,meteohub,2013-07-30 19:18:00,
2013-07-30 15:23:00,79.5,59.7,30.16,WNW,302,1.0,9.0,51,0.00,,,0.00,meteohub,2013-07-30 19:23:00,
2013-07-30 15:28:00,79.5,58.1,30.16,WNW,291,4.0,9.0,48,0.00,,,0.00,meteohub,2013-07-30 19:28:00,
2013-07-30 15:33:00,80.1,58.6,30.16,NW,311,3.0,8.0,48,0.00,,,0.00,meteohub,2013-07-30 19:33:00,
2013-07-30 15:38:00,80.4,59.5,30.16,NW,308,5.0,10.0,49,0.00,,,0.00,meteohub,2013-07-30 19:38:00,
2013-07-30 15:43:00,80.2,58.8,30.16,WNW,293,4.0,10.0,48,0.00,,,0.00,meteohub,2013-07-30 19:43:00,
2013-07-30 15:48:00,80.2,58.1,30.16,NW,312,1.0,10.0,47,0.00,,,0.00,meteohub,2013-07-30 19:48:00,
2013-07-30 15:53:00,80.2,58.8,30.16,WNW,287,4.0,10.0,48,0.00,,,0.00,meteohub,2013-07-30 19:53:00,
2013-07-30 15:58:00,80.4,59.5,30.16,NNE,31,0.0,10.0,49,0.00,,,0.00,meteohub,2013-07-30 19:58:00,
2013-07-30 16:03:00,79.9,60.1,30.16,West,281,2.0,9.0,51,0.00,,,0.00,meteohub,2013-07-30 20:03:00,
2013-07-30 16:08:00,79.2,60.1,30.16,NW,305,2.0,7.0,52,0.00,,,0.00,meteohub,2013-07-30 20:08:00,
2013-07-30 16:13:00,78.6,59.0,30.15,WNW,294,2.0,6.0,51,0.00,,,0.00,meteohub,2013-07-30 20:13:00,
2013-07-30 16:18:00,78.6,58.5,30.15,NE,42,2.0,6.0,50,0.00,,,0.00,meteohub,2013-07-30 20:18:00,
2013-07-30 16:23:00,78.6,59.0,30.15,NNW,332,2.0,6.0,51,0.00,,,0.00,meteohub,2013-07-30 20:23:00,
2013-07-30 16:28:00,79.5,60.4,30.15,NNW,340,3.0,5.0,52,0.00,,,0.00,meteohub,2013-07-30 20:28:00,
2013-07-30 16:33:00,80.1,60.3,30.15,WNW,301,2.0,5.0,51,0.00,,,0.00,meteohub,2013-07-30 20:33:00,
2013-07-30 16:38:00,80.1,59.2,30.15,NW,304,3.0,8.0,49,0.00,,,0.00,meteohub,2013-07-30 20:38:00,
2013-07-30 16:43:00,80.2,59.9,30.14,NNW,336,2.0,10.0,50,0.00,,,0.00,meteohub,2013-07-30 20:43:00,
2013-07-30 16:48:00,80.8,59.2,30.14,WNW,302,1.0,10.0,48,0.00,,,0.00,meteohub,2013-07-30 20:48:00,
2013-07-30 16:54:00,79.9,59.0,30.14,West,277,3.0,10.0,49,0.00,,,0.00,meteohub,2013-07-30 20:54:00,
2013-07-30 16:58:00,79.9,59.5,30.14,WNW,292,5.0,8.0,50,0.00,,,0.00,meteohub,2013-07-30 20:58:00,
2013-07-30 17:04:00,79.9,59.5,30.14,NW,305,3.0,8.0,50,0.00,,,0.00,meteohub,2013-07-30 21:04:00,
2013-07-30 17:09:00,80.1,60.3,30.14,NNW,334,1.0,8.0,51,0.00,,,0.00,meteohub,2013-07-30 21:09:00,
2013-07-30 17:14:00,80.1,60.8,30.14,WNW,292,0.0,7.0,52,0.00,,,0.00,meteohub,2013-07-30 21:14:00,
2013-07-30 17:19:00,80.6,60.3,30.14,WNW,295,3.0,3.0,50,0.00,,,0.00,meteohub,2013-07-30 21:19:00,
2013-07-30 17:24:00,80.2,59.4,30.14,West,280,2.0,5.0,49,0.00,,,0.00,meteohub,2013-07-30 21:24:00,
2013-07-30 17:29:00,80.8,59.9,30.15,West,278,4.0,6.0,49,0.00,,,0.00,meteohub,2013-07-30 21:29:00,
2013-07-30 17:34:00,81.3,61.0,30.15,WNW,296,3.0,10.0,50,0.00,,,0.00,meteohub,2013-07-30 21:34:00,
2013-07-30 17:39:00,81.1,59.5,30.15,WNW,293,2.0,10.0,48,0.00,,,0.00,meteohub,2013-07-30 21:39:00,
2013-07-30 17:44:00,81.7,60.6,30.15,NNW,333,1.0,10.0,49,0.00,,,0.00,meteohub,2013-07-30 21:44:00,
2013-07-30 17:49:00,81.1,60.1,30.15,West,275,4.0,6.0,49,0.00,,,0.00,meteohub,2013-07-30 21:49:00,
2013-07-30 17:54:00,81.3,59.7,30.16,NNW,327,1.0,8.0,48,0.00,,,0.00,meteohub,2013-07-30 21:54:00,
2013-07-30 17:59:00,81.1,58.5,30.16,WNW,293,7.0,8.0,46,0.00,,,0.00,meteohub,2013-07-30 21:59:00,
2013-07-30 18:04:00,80.4,58.3,30.16,WNW,297,5.0,9.0,47,0.00,,,0.00,meteohub,2013-07-30 22:04:00,
2013-07-30 18:09:00,80.4,59.0,30.16,NW,322,1.0,13.0,48,0.00,,,0.00,meteohub,2013-07-30 22:09:00,
2013-07-30 18:14:00,80.4,59.0,30.16,WNW,296,2.0,13.0,48,0.00,,,0.00,meteohub,2013-07-30 22:14:00,
2013-07-30 18:19:00,79.9,58.5,30.17,WNW,295,7.0,13.0,48,0.00,,,0.00,meteohub,2013-07-30 22:19:00,
2013-07-30 18:24:00,79.5,59.2,30.17,NW,318,0.0,11.0,50,0.00,,,0.00,meteohub,2013-07-30 22:24:00,
2013-07-30 18:29:00,79.2,59.5,30.17,North,352,0.0,11.0,51,0.00,,,0.00,meteohub,2013-07-30 22:29:00,
2013-07-30 18:34:00,79.3,60.3,30.17,NNE,15,1.0,11.0,52,0.00,,,0.00,meteohub,2013-07-30 22:34:00,
2013-07-30 18:39:00,79.5,59.7,30.17,North,349,1.0,6.0,51,0.00,,,0.00,meteohub,2013-07-30 22:39:00,
2013-07-30 18:44:00,79.7,59.4,30.17,West,275,3.0,6.0,50,0.00,,,0.00,meteohub,2013-07-30 22:44:00,
2013-07-30 18:49:00,79.9,60.1,30.17,WNW,291,1.0,4.0,51,0.00,,,0.00,meteohub,2013-07-30 22:49:00,
2013-07-30 18:54:00,79.3,60.3,30.17,West,281,3.0,4.0,52,0.00,,,0.00,meteohub,2013-07-30 22:54:00,
2013-07-30 18:59:00,78.8,59.7,30.17,NW,307,0.0,5.0,52,0.00,,,0.00,meteohub,2013-07-30 22:59:00,
2013-07-30 19:04:00,78.4,58.8,30.17,West,281,4.0,5.0,51,0.00,,,0.00,meteohub,2013-07-30 23:04:00,
2013-07-30 19:09:00,78.3,59.2,30.17,WNW,288,2.0,8.0,52,0.00,,,0.00,meteohub,2013-07-30 23:09:00,
2013-07-30 19:14:00,78.4,58.8,30.17,NW,304,2.0,8.0,51,0.00,,,0.00,meteohub,2013-07-30 23:14:00,
2013-07-30 19:19:00,78.1,59.0,30.17,WNW,291,0.0,8.0,52,0.00,,,0.00,meteohub,2013-07-30 23:19:00,
2013-07-30 19:24:00,77.9,59.9,30.18,WSW,249,0.0,4.0,54,0.00,,,0.00,meteohub,2013-07-30 23:24:00,
2013-07-30 19:29:00,77.5,60.1,30.18,NW,326,0.0,4.0,55,0.00,,,0.00,meteohub,2013-07-30 23:29:00,
2013-07-30 19:34:00,77.2,59.7,30.17,WNW,301,0.0,3.0,55,0.00,,,0.00,meteohub,2013-07-30 23:34:00,
2013-07-30 19:39:00,76.8,59.4,30.17,WNW,301,0.0,2.0,55,0.00,,,0.00,meteohub,2013-07-30 23:39:00,
2013-07-30 19:44:00,76.5,59.5,30.17,WNW,300,0.0,2.0,56,0.00,,,0.00,meteohub,2013-07-30 23:44:00,
2013-07-30 19:49:00,76.1,59.7,30.17,WNW,300,0.0,2.0,57,0.00,,,0.00,meteohub,2013-07-30 23:49:00,
2013-07-30 19:54:00,75.7,59.9,30.17,WNW,301,0.0,0.0,58,0.00,,,0.00,meteohub,2013-07-30 23:54:00,
2013-07-30 19:59:00,75.4,60.1,30.17,WNW,300,0.0,0.0,59,0.00,,,0.00,meteohub,2013-07-30 23:59:00,
2013-07-30 20:04:00,75.0,60.3,30.17,WNW,301,0.0,1.0,60,0.00,,,0.00,meteohub,2013-07-31 00:04:00,
2013-07-30 20:09:00,74.8,60.1,30.17,WNW,300,0.0,1.0,60,0.00,,,0.00,meteohub,2013-07-31 00:09:00,
2013-07-30 20:14:00,74.5,59.7,30.17,WNW,300,0.0,1.0,60,0.00,,,0.00,meteohub,2013-07-31 00:14:00,
2013-07-30 20:19:00,74.1,59.7,30.17,WNW,301,0.0,0.0,61,0.00,,,0.00,meteohub,2013-07-31 00:19:00,
2013-07-30 20:24:00,73.9,60.1,30.17,WNW,300,0.0,0.0,62,0.00,,,0.00,meteohub,2013-07-31 00:24:00,
2013-07-30 20:29:00,73.9,60.1,30.17,WNW,300,0.0,0.0,62,0.00,,,0.00,meteohub,2013-07-31 00:29:00,
2013-07-30 20:34:00,73.6,60.3,30.17,WNW,300,0.0,0.0,63,0.00,,,0.00,meteohub,2013-07-31 00:34:00,
2013-07-30 20:39:00,73.2,60.3,30.17,WNW,300,0.0,0.0,64,0.00,,,0.00,meteohub,2013-07-31 00:39:00,
2013-07-30 20:44:00,72.9,59.9,30.17,WNW,301,0.0,0.0,64,0.00,,,0.00,meteohub,2013-07-31 00:44:00,
2013-07-30 20:49:00,72.5,60.4,30.17,WNW,300,0.0,0.0,66,0.00,,,0.00,meteohub,2013-07-31 00:49:00,
2013-07-30 20:54:00,72.1,60.1,30.17,WNW,300,0.0,0.0,66,0.00,,,0.00,meteohub,2013-07-31 00:54:00,
2013-07-30 20:59:00,71.8,60.6,30.17,WNW,300,0.0,0.0,68,0.00,,,0.00,meteohub,2013-07-31 00:59:00,
2013-07-30 21:04:00,71.4,60.3,30.17,WNW,301,0.0,0.0,68,0.00,,,0.00,meteohub,2013-07-31 01:04:00,
2013-07-30 21:09:00,71.2,60.1,30.17,WNW,300,0.0,0.0,68,0.00,,,0.00,meteohub,2013-07-31 01:09:00,
2013-07-30 21:14:00,71.1,59.9,30.17,WNW,301,0.0,0.0,68,0.00,,,0.00,meteohub,2013-07-31 01:14:00,
2013-07-30 21:19:00,70.9,60.3,30.17,WNW,301,0.0,0.0,69,0.00,,,0.00,meteohub,2013-07-31 01:19:00,
2013-07-30 21:24:00,70.9,60.6,30.17,WNW,301,0.0,0.0,70,0.00,,,0.00,meteohub,2013-07-31 01:24:00,
2013-07-30 21:29:00,70.9,60.6,30.17,WNW,300,0.0,0.0,70,0.00,,,0.00,meteohub,2013-07-31 01:29:00,
2013-07-30 21:34:00,70.7,61.2,30.17,WNW,300,0.0,0.0,72,0.00,,,0.00,meteohub,2013-07-31 01:34:00,
2013-07-30 21:39:00,70.5,61.5,30.17,WNW,300,0.0,0.0,73,0.00,,,0.00,meteohub,2013-07-31 01:39:00,
2013-07-30 21:44:00,70.3,61.3,30.18,WNW,301,0.0,0.0,73,0.00,,,0.00,meteohub,2013-07-31 01:44:00,
2013-07-30 21:49:00,70.2,61.9,30.18,WNW,300,0.0,0.0,75,0.00,,,0.00,meteohub,2013-07-31 01:49:00,
2013-07-30 21:54:00,70.0,62.1,30.18,WNW,301,0.0,0.0,76,0.00,,,0.00,meteohub,2013-07-31 01:54:00,
2013-07-30 22:00:00,69.6,61.7,30.18,WNW,300,0.0,0.0,76,0.00,,,0.00,meteohub,2013-07-31 02:00:00,
2013-07-30 22:05:00,69.4,61.9,30.18,WNW,300,0.0,0.0,77,0.00,,,0.00,meteohub,2013-07-31 02:05:00,
2013-07-30 22:10:00,69.1,61.5,30.18,WNW,301,0.0,0.0,77,0.00,,,0.00,meteohub,2013-07-31 02:10:00,
2013-07-30 22:15:00,69.1,61.9,30.18,WNW,301,0.0,0.0,78,0.00,,,0.00,meteohub,2013-07-31 02:15:00,
2013-07-30 22:20:00,68.7,61.5,30.18,WNW,300,0.0,0.0,78,0.00,,,0.00,meteohub,2013-07-31 02:20:00,
2013-07-30 22:25:00,68.5,61.7,30.18,WNW,300,0.0,0.0,79,0.00,,,0.00,meteohub,2013-07-31 02:25:00,
2013-07-30 22:30:00,68.4,61.5,30.18,WNW,300,0.0,0.0,79,0.00,,,0.00,meteohub,2013-07-31 02:30:00,
2013-07-30 22:35:00,68.2,61.7,30.18,WNW,300,0.0,0.0,80,0.00,,,0.00,meteohub,2013-07-31 02:35:00,
2013-07-30 22:40:00,67.8,61.3,30.18,WNW,301,0.0,0.0,80,0.00,,,0.00,meteohub,2013-07-31 02:40:00,
2013-07-30 22:45:00,67.8,61.7,30.18,WNW,301,0.0,0.0,81,0.00,,,0.00,meteohub,2013-07-31 02:45:00,
2013-07-30 22:50:00,67.6,61.5,30.18,WNW,300,0.0,0.0,81,0.00,,,0.00,meteohub,2013-07-31 02:50:00,
2013-07-30 22:55:00,67.5,61.3,30.18,WNW,301,0.0,0.0,81,0.00,,,0.00,meteohub,2013-07-31 02:55:00,
2013-07-30 23:00:00,67.3,61.5,30.18,WNW,300,0.0,0.0,82,0.00,,,0.00,meteohub,2013-07-31 03:00:00,
2013-07-30 23:05:00,66.9,61.2,30.18,WNW,300,0.0,0.0,82,0.00,,,0.00,meteohub,2013-07-31 03:05:00,
2013-07-30 23:10:00,66.7,61.0,30.18,WNW,301,0.0,0.0,82,0.00,,,0.00,meteohub,2013-07-31 03:10:00,
2013-07-30 23:15:00,66.6,61.2,30.18,WNW,300,0.0,0.0,83,0.00,,,0.00,meteohub,2013-07-31 03:15:00,
2013-07-30 23:20:00,66.4,61.0,30.18,WNW,301,0.0,0.0,83,0.00,,,0.00,meteohub,2013-07-31 03:20:00,
2013-07-30 23:25:00,66.2,61.2,30.18,WNW,301,0.0,0.0,84,0.00,,,0.00,meteohub,2013-07-31 03:25:00,
2013-07-30 23:30:00,66.0,61.0,30.18,WNW,301,0.0,0.0,84,0.00,,,0.00,meteohub,2013-07-31 03:30:00,
2013-07-30 23:35:00,65.8,60.8,30.18,WNW,300,0.0,0.0,84,0.00,,,0.00,meteohub,2013-07-31 03:35:00,
2013-07-30 23:40:00,65.7,61.0,30.18,WNW,300,0.0,0.0,85,0.00,,,0.00,meteohub,2013-07-31 03:40:00,
2013-07-30 23:45:00,65.5,60.8,30.19,WNW,300,0.0,0.0,85,0.00,,,0.00,meteohub,2013-07-31 03:45:00,
2013-07-30 23:50:00,65.1,60.8,30.19,WNW,300,0.0,0.0,86,0.00,,,0.00,meteohub,2013-07-31 03:50:00,
2013-07-30 23:55:00,64.9,60.6,30.19,WNW,300,0.0,0.0,86,0.00,,,0.00,meteohub,2013-07-31 03:55:00,